Weather History for Fort Benning, GA

Change the Weather History Date:

Saturday, April 20, 2013

  Actual Average Record
Temperature  
Mean Temperature 51 °F -  
Max Temperature 67 °F 74 °F 89 °F (2006)
Min Temperature 35 °F 49 °F 35 °F (2013)
Degree Days  
Heating Degree Days 14    
Growing Degree Days 1 (Base 50)    
Moisture  
Dew Point 39 °F    
Average Humidity 78    
Maximum Humidity 100    
Minimum Humidity 33    
Precipitation  
Precipitation 0.00 in - - ()
Sea Level Pressure  
Sea Level Pressure 30.18 in    
Wind  
Wind Speed 4 mph (NW)    
Max Wind Speed 10 mph    
Max Gust Speed 17 mph    
Visibility 8 miles    
Events      
Averages and records for this station are not official NWS values.
T = Trace of Precipitation, MM = Missing Value Source: NWS Daily Summary

Daily Weather History Graph

Daily Weather History Graph

Search for Another Location

Airport:

Trip Planner

Search our weather history database for the weather conditions in past years. The results will help you decide how hot, cold, wet, or windy it might be!

Date:

Astronomy

Apr. 20, 2013 Rise Set
Actual Time 7:04 AM EDT 8:13 PM EDT
Civil Twilight 6:39 AM EDT 8:38 PM EDT
Nautical Twilight 6:09 AM EDT 9:09 PM EDT
Astronomical Twilight 5:37 AM EDT 9:40 PM EDT
Moon 3:13 PM EDT (4/20) 3:35 AM EDT (4/20)
Length of Visible Light 13h 59m
Length of Day
13h 08m
Waxing Gibbous, 71% of the Moon is Illuminated
Apr 20
Waxing Gibbous
Apr 25
Full
May 2
Last Quarter
May 9
New
May 18
First Quarter

Hourly Weather History & Observations

Time (EDT) Temp. Windchill Dew Point Humidity Pressure Visibility Wind Dir Wind Speed Gust Speed Precip Events Conditions
12:58 AM 46.2 °F 44.1 °F 45.3 °F 97% 30.13 in 10.0 mi West 4.6 mph - N/A   Clear
1:58 AM 45.0 °F 42.6 °F 44.2 °F 97% 30.12 in 10.0 mi West 4.6 mph - N/A   Partly Cloudy
2:28 AM 44.6 °F 41.4 °F 44.6 °F 100% 30.12 in 10.0 mi West 5.8 mph - N/A   Partly Cloudy
2:58 AM 45.0 °F 41.8 °F 44.6 °F 99% 30.13 in 10.0 mi WNW 5.8 mph - N/A   Partly Cloudy
3:58 AM 41.4 °F 35.7 °F 40.6 °F 97% 30.14 in 10.0 mi NW 9.2 mph - N/A   Clear
4:58 AM 41.4 °F 37.6 °F 38.3 °F 89% 30.14 in 10.0 mi NW 5.8 mph - N/A   Clear
5:58 AM 39.0 °F - 38.1 °F 97% 30.16 in 10.0 mi Calm Calm - N/A   Clear
6:28 AM 37.4 °F - 37.4 °F 100% 30.16 in 5.0 mi WSW 2.3 mph - N/A   Clear
6:43 AM 37.4 °F - 37.4 °F 100% 30.17 in 10.0 mi West 1.2 mph - N/A   Clear
6:53 AM 37.4 °F - 37.4 °F 100% 30.17 in 8.0 mi Calm Calm - N/A   Clear
6:58 AM 36.3 °F - 36.1 °F 99% 30.18 in 5.0 mi Calm Calm - N/A   Clear
7:03 AM 35.6 °F - 35.6 °F 100% 30.17 in 2.5 mi Calm Calm - N/A   Clear
7:13 AM 35.6 °F - 35.6 °F 100% 30.18 in 1.0 mi Calm Calm - N/A   Clear
7:18 AM 35.6 °F - 35.6 °F 100% 30.18 in 0.8 mi Calm Calm - N/A   Clear
7:23 AM 35.6 °F - 35.6 °F 100% 30.18 in 1.5 mi NW 1.2 mph - N/A   Clear
7:28 AM 35.6 °F - 35.6 °F 100% 30.18 in 5.0 mi Calm Calm - N/A   Clear
7:58 AM 36.3 °F - 36.1 °F 99% 30.21 in 10.0 mi Calm Calm - N/A   Clear
8:58 AM 44.4 °F 42.9 °F 40.1 °F 85% 30.23 in 10.0 mi Variable 3.5 mph - N/A   Clear
9:58 AM 49.6 °F - 36.1 °F 60% 30.24 in 10.0 mi North 10.4 mph - N/A   Clear
10:58 AM 52.7 °F - 37.2 °F 56% 30.25 in 10.0 mi North 10.4 mph 17.3 mph N/A   Clear
11:58 AM 57.0 °F - 38.3 °F 50% 30.25 in 10.0 mi NNE 9.2 mph 17.3 mph N/A   Clear
12:58 PM 58.8 °F - 36.9 °F 44% 30.23 in 10.0 mi NNW 9.2 mph - N/A   Clear
1:58 PM 61.0 °F - 37.4 °F 42% 30.21 in 10.0 mi North 8.1 mph - N/A   Clear
2:58 PM 62.8 °F - 36.9 °F 38% 30.19 in 10.0 mi NNE 6.9 mph - N/A   Clear
3:58 PM 65.7 °F - 36.5 °F 34% 30.16 in 10.0 mi North 8.1 mph - N/A   Clear
4:58 PM 66.9 °F - 36.5 °F 33% 30.14 in 10.0 mi NW 5.8 mph - N/A   Clear
5:58 PM 67.5 °F - 37.8 °F 34% 30.14 in 10.0 mi Variable 5.8 mph - N/A   Clear
6:58 PM 66.2 °F - 36.1 °F 33% 30.14 in 10.0 mi North 8.1 mph - N/A   Clear
7:58 PM 62.4 °F - 36.5 °F 38% 30.15 in 10.0 mi North 4.6 mph - N/A   Clear
8:58 PM 50.4 °F - 44.8 °F 81% 30.18 in 10.0 mi Calm Calm - N/A   Clear
9:58 PM 46.9 °F - 43.7 °F 88% 30.21 in 10.0 mi NW 2.3 mph - N/A   Clear
10:58 PM 45.0 °F - 43.2 °F 93% 30.23 in 10.0 mi NW 2.3 mph - N/A   Clear
11:58 PM 43.0 °F 41.3 °F 42.4 °F 98% 30.23 in 10.0 mi NNW 3.5 mph - N/A   Clear